SCP
0 0 0 0 0 0 0 0 0 0 0 0 0 0 0 0 0 0 0 0 0 0 0 0 0 0 0 0 0 0 0 0 0 0 0 0 0 0 0 0 0 0 0
0 0 0 0 0 0 0 0 0 0 0 0 0 0 0 0 0 0 0 0 0 0 0 0 0 0 0 0 0 0 0 0 0 0 0 0 0 0 0 0 0 0 0
0 0 0 0 0 0 0 0 0 0 0 0 0 0 0 0 0 0 0 0 0 0 0 0 0 0 0 0 0 0 0 0 0 0 0 0 0 0 0 0 0 0 0
0 0 0 0 0 0 0 0 0 0 0 0 0 0 0 0 0 0 0 0 0 0 0 0 0 0 0 0 0 0 0 0 0 0 0 0 0 0 0 0 0 0 0
0 0 0 0 0 0 0 0 0 0 0 0 0 0 0 0 0 0 0 0 0 0 0 0 0 0 0 0 0 0 0 0 0 0 0 0 0 0 0 0 0 0 0
0 0 0 0 0 0 0 0 0 0 0 0 0 0 0 0 0 0 0 0 0 0 0 0 0 0 0 0 0 0 0 0 0 0 0 0 0 0 0 0 0 0 0
0 0 0 0 0 0 0 0 0 0 0 0 0 0 0 0 0 0 0 0 0 0 0 0 0 0 0 0 0 0 0 0 0 0 0 0 0 0 0 0 0 0 0
0 0 0 0 0 0 0 0 0 0 0 0 0 0 0 0 0 0 0 0 0 0 0 0 0 0 0 0 0 0 0 0 0 0 0 0 0 0 0 0 0 0 0
0 -0 0 0 0 0 0 0 0 0 0 0 0 0 0 0 0 0 0 0 0 0 0 0 0 0 0 0 0 0 0 0 0 0 0 0 0 -0 0 0 0 0 0
0 0 -0 0 0 -0 0 0 0 0 0 0 0 0 0 0 0 0 0 0 0 0 0 0 0 0 0 0 0 0 0 0 0 0 0 0 0 0 0 0 0 0 0
0 0 -0 -0 0 0 0 0 0 0 0 0 0 0 0 0 0 -0 0 0 0 0 0 0 0 0 0 0 0 0 0 0 0 0 0 0 0 0 0 0 0 0 0
-0 -0 0 0 0 0 0 -0 0 0 0 0 0 0 0 0 0 0 0 0 0 0 0 0 0 0 0 0 0 0 0 0 0 0 0 0 0 0 0 0 0 0 0
-0 -0 -0 -0 -0 -0 -0 -0 0 0 -0 -0 0 0 0 0 0 0 0 0 0 0 0 0 0 0 0 0 0 0 0 0 0 0 0 0 0 0 0 0 0 0 0
-0 -0 -0 -0 -0 0 -0 -0 -0 0 0 0 0 0 0 0 0 0 0 0 0 0 0 0 0 0 0 0 0 0 0 0 0 0 0 0 0 0 0 0 0 0 0
-0 -0 -0 -0 -0 -0 0 0 0 0 0 0 0 0 0 0 0 0 0 0 0 0 0 0 0 0 0 0 0 0 0 0 0 0 0 0 0 0 0 0 0 0 0
-0 0 -0 0 0 0 0 0 0 0 0 0 0 0 0 0 0 0 0 0 0 0 0 0 0 0 0 0 0 0 0 0 0 0 0 0 0 0 0 0 0 0 0
0 0 0 0 0 0 0 0 0 0 0 0 0 0 0 0 0 0 0 0 0 0 0 0 0 0 0 0 0 0 0 0 0 0 0 0 0 0 0 0 0 0 0
0 0 0 0 0 0 0 0 0 0 0 0 0 0 0 0 0 0 0 0 0 0 0 0 0 0 0 0 0 0 0 0 0 0 0 0 0 0 0 0 0 0 0
0 0 0 0 0 0 0 0 0 0 0 0 0 0 0 0 0 0 0 0 0 0 0 0 0 0 0 0 0 0 0 0 0 0 0 0 0 0 0 0 0 0 0
0 0 0 0 0 0 0 0 0 0 0 0 0 0 0 0 0 0 0 0 0 0 0 0 0 0 0 0 0 0 0 0 0 0 0 0 0 0 0 0 0 0 0
0 0 0 0 0 0 0 0 0 0 0 0 0 0 0 0 0 0 0 0 0 0 0 0 0 0 0 0 0 0 0 0 0 0 0 0 0 0 0 0 0 0 0
0 0 0 0 0 0 0 0 0 0 0 0 0 0 0 0 0 0 0 0 0 0 0 0 0 0 0 0 0 0 0 0 0 0 0 0 0 0 0 0 0 0 0
0 0 0 0 0 0 0 0 0 0 0 0 0 0 0 0 0 0 0 0 0 0 0 0 0 0 0 0 0 0 0 0 0 0 0 0 0 0 0 0 0 0 0
0 0 0 0 0 0 0 0 0 0 0 0 0 0 0 0 0 0 0 0 0 0 0 0 0 0 0 0 0 0 0 0 0 0 0 0 0 0 0 0 0 0 0
0 0 0 0 0 0 0 0 0 0 0 0 0 0 0 0 0 0 0 0 0 0 0 0 0 0 0 0 0 0 0 0 0 0 0 0 0 0 0 0 0 0 0
0 0 0 0 0 0 0 0 0 0 0 0 0 0 0 0 0 0 0 0 0 0 0 0 0 0 0 0 0 0 0 0 0 0 0 0 0 0 0 0 0 0 0
Wind_Speed_500mb
48 56 65 67 74 79 85 83 83 88 90 94 88 92 92 88 79 70 58 55 49 46 44 49 43 30 27 24 21 17 13 11 12 13 15 18 25 33 38 43 48 49 49
41 45 62 63 68 56 72 74 77 76 79 80 79 74 69 66 59 52 55 55 45 57 58 42 38 32 26 21 15 11 9 8 7 9 12 20 26 32 39 43 45 48 53
42 42 66 69 67 57 62 60 57 57 56 62 58 62 58 56 54 55 56 58 62 51 46 39 34 29 23 16 11 7 6 6 8 9 13 20 29 34 40 44 52 56 55
40 64 71 64 61 57 50 48 45 52 62 55 61 65 56 58 63 65 68 64 57 51 44 36 31 25 17 10 5 5 8 9 11 13 18 24 31 37 46 55 56 58 63
43 57 65 63 56 51 48 53 57 59 65 70 68 66 69 69 72 70 63 58 52 47 41 33 26 19 11 2 4 6 9 11 14 16 19 27 36 43 50 55 60 67 71
45 52 54 64 59 59 59 67 74 84 80 75 78 77 77 71 62 54 52 51 46 40 35 28 20 10 6 3 3 9 13 14 16 23 30 34 38 43 49 54 59 67 71
56 60 61 69 74 73 81 86 87 84 80 82 83 78 72 60 57 52 46 45 41 35 27 21 13 8 2 2 8 13 15 20 25 29 31 34 38 42 50 55 59 63 68
59 70 76 78 84 91 90 89 90 89 88 83 77 70 63 56 52 48 42 38 34 30 22 16 11 6 4 3 7 8 14 20 27 27 28 33 38 43 47 53 60 65 69
69 72 75 81 88 91 94 93 91 86 79 75 67 61 59 54 45 39 33 31 27 22 17 12 7 2 4 7 10 16 20 23 25 28 31 32 35 37 43 53 55 61 75
69 74 78 83 90 95 91 88 84 78 77 67 63 54 48 47 38 33 27 22 19 17 12 7 3 2 9 14 16 20 25 25 28 28 31 33 38 40 42 48 54 59 64
70 75 81 83 82 80 77 76 75 71 67 61 55 47 40 35 33 26 23 18 13 10 8 5 2 6 10 18 21 26 31 30 34 39 41 43 44 45 47 49 52 56 59
76 77 74 70 71 71 67 66 63 59 56 52 47 44 36 30 25 20 15 10 8 7 6 2 3 8 14 19 22 28 32 36 39 42 45 47 51 53 54 55 54 55 55
70 73 71 68 63 58 55 54 50 45 42 42 36 34 31 24 18 13 9 10 9 6 4 3 6 12 16 21 26 31 35 39 43 46 50 53 55 58 58 61 58 59 57
63 61 58 56 54 49 44 41 39 35 33 34 32 26 21 16 13 10 11 11 8 5 4 5 9 14 20 25 28 33 38 43 46 49 52 57 61 64 64 65 67 65 67
48 48 46 44 42 41 37 32 28 28 21 19 19 15 12 13 10 9 9 7 5 5 7 11 15 19 24 28 31 34 40 45 49 52 57 63 67 69 68 66 64 64 63
34 34 31 26 24 25 25 28 29 24 19 16 14 11 8 7 9 10 10 9 8 9 11 15 19 24 28 33 37 38 40 46 50 56 60 64 69 71 71 68 64 64 66
20 24 19 14 15 17 16 16 18 24 21 15 13 11 10 10 12 14 13 11 13 16 16 19 24 29 32 36 40 45 49 49 55 58 62 65 69 70 71 69 66 65 67
16 13 11 9 9 9 8 8 8 9 11 11 15 14 17 17 17 17 17 19 18 18 22 26 30 34 37 42 45 50 53 57 60 62 63 66 68 70 71 68 65 65 67
12 6 2 1 5 9 12 14 12 10 10 13 15 16 20 21 22 22 23 23 24 25 29 30 34 39 42 47 51 54 58 61 64 66 66 67 67 69 71 67 66 64 64
14 10 10 11 11 12 13 15 17 19 20 20 21 21 23 24 25 25 27 29 31 32 33 36 38 42 47 52 55 60 63 66 68 70 70 68 68 69 70 68 65 66 63
19 18 22 23 19 18 20 21 23 26 27 27 26 29 29 30 31 32 33 34 36 38 38 42 44 47 50 55 59 64 67 70 71 73 73 71 71 73 69 67 66 63 60
22 25 27 29 27 25 24 27 29 30 32 33 33 34 38 36 34 37 38 39 41 43 44 48 49 52 54 59 62 67 69 72 73 74 75 76 75 74 71 69 65 60 58
25 25 25 27 29 29 30 31 33 34 35 36 37 39 40 39 39 41 43 44 45 45 48 52 55 56 57 59 62 66 71 73 74 74 79 80 80 77 73 69 63 60 63
25 25 25 26 29 30 31 33 35 36 37 38 39 41 41 41 43 45 46 46 49 50 53 55 58 60 61 62 63 66 69 69 71 76 75 78 77 74 69 63 58 62 66
25 25 25 26 29 32 35 36 37 37 39 39 40 42 41 44 45 46 48 50 52 55 55 57 59 61 62 62 64 68 69 71 73 71 75 75 73 67 61 60 64 67 63
25 26 27 30 32 34 35 36 37 38 40 40 42 43 44 46 46 48 49 52 55 57 59 60 60 60 61 62 66 69 73 73 70 70 70 69 65 61 61 67 70 70 70
Wind_Direction_500mb
220 211 213 222 227 229 228 228 227 222 215 211 203 194 195 197 190 184 176 169 168 180 181 175 161 156 156 155 154 162 186 215 236 237 254 277 294 301 307 313 314 319 324
219 213 212 221 217 228 218 221 220 218 210 206 194 190 178 172 169 164 165 168 176 167 161 151 149 149 148 149 159 179 215 236 244 258 283 293 297 307 311 315 317 325 330
203 203 207 207 215 219 218 215 215 209 200 185 179 170 158 151 160 161 164 157 155 146 144 148 146 145 151 161 184 217 251 292 315 308 305 311 314 314 317 322 328 328 333
198 193 192 196 201 203 202 197 192 190 174 163 157 152 154 160 162 156 152 143 141 145 143 144 147 154 161 179 202 292 313 323 333 334 324 318 320 325 330 328 326 332 334
188 180 177 178 181 179 171 167 161 163 163 156 157 156 154 156 154 148 140 144 145 144 145 151 157 158 170 185 324 309 324 339 332 323 327 333 337 332 327 327 330 333 338
166 164 160 159 158 154 152 153 153 153 151 156 155 151 148 142 130 140 144 141 145 144 148 153 155 164 142 252 303 329 328 330 335 345 346 340 330 325 324 330 332 333 334
140 141 146 150 148 148 152 150 151 149 149 149 145 140 130 134 141 142 144 142 143 140 145 153 145 146 153 38 351 331 330 344 348 345 336 327 328 328 329 329 329 328 327
133 137 142 145 145 146 147 146 145 141 143 136 127 124 131 143 143 143 142 142 140 144 148 145 153 148 112 344 307 327 342 346 341 327 324 329 330 330 323 323 324 323 324
127 132 137 140 141 142 140 139 136 138 128 122 124 134 148 142 141 136 143 143 142 140 150 149 121 120 292 325 351 349 342 336 328 327 326 324 321 323 321 321 322 324 329
124 128 133 135 134 132 132 134 130 128 122 130 140 143 141 134 135 139 141 141 149 146 138 131 147 305 328 351 349 334 327 329 321 323 326 328 326 325 322 323 324 325 329
121 123 125 128 128 127 127 124 121 121 135 139 138 135 134 135 139 147 152 152 144 141 140 150 242 345 340 334 334 327 321 325 324 327 330 331 329 328 327 326 324 324 326
115 118 120 120 120 119 118 121 134 137 137 137 138 136 139 146 152 151 147 147 148 162 163 172 316 328 330 321 318 315 319 321 322 323 326 329 330 332 330 327 328 326 323
116 116 114 112 113 119 124 130 133 136 137 135 139 146 150 147 144 147 155 157 155 163 174 248 303 315 313 314 314 320 321 321 323 325 327 328 329 330 331 329 329 323 320
112 118 121 122 125 128 130 131 132 135 141 144 149 147 145 151 164 170 166 161 166 188 243 281 297 307 315 315 315 319 324 324 323 323 324 327 331 332 332 329 328 324 321
118 120 124 125 128 130 129 125 128 129 127 139 148 158 173 180 180 175 173 181 209 248 275 292 305 311 311 314 317 320 322 323 323 323 326 329 329 328 328 327 325 322 322
114 116 115 116 124 135 142 147 152 158 155 163 180 191 200 220 215 207 206 223 240 273 295 297 299 300 306 313 319 321 321 321 322 324 326 327 327 326 325 325 325 322 323
119 119 115 122 138 149 157 166 169 171 179 193 203 222 238 245 230 223 230 254 280 289 294 298 298 304 309 312 317 319 321 323 322 324 325 324 323 323 322 324 323 322 322
141 127 104 91 131 153 165 184 213 223 219 221 237 249 258 259 248 247 252 259 269 287 292 293 301 307 314 317 316 317 321 322 322 322 322 322 323 322 322 323 322 321 321
167 176 161 77 188 197 203 207 212 221 238 257 266 266 261 252 244 246 257 269 280 283 286 296 306 312 315 316 318 319 318 319 320 321 322 322 323 321 320 321 320 320 321
204 230 241 255 251 240 237 235 238 244 252 260 263 269 268 260 259 258 264 271 277 283 293 302 307 312 315 316 317 317 317 319 320 320 321 322 321 319 319 320 320 321 321
224 244 245 251 255 250 249 248 251 254 259 265 269 273 274 268 265 264 268 273 280 288 295 299 304 309 313 315 316 315 316 318 319 320 321 321 320 319 320 319 319 319 319
258 251 247 245 249 256 261 258 259 263 267 270 274 275 276 277 271 268 270 274 279 286 291 296 303 309 312 313 314 313 315 318 319 320 321 321 320 320 320 318 318 317 318
255 256 252 248 248 253 258 262 266 267 268 270 272 275 276 277 272 270 271 274 280 287 293 298 304 307 309 311 312 313 315 317 318 320 320 319 319 319 318 317 317 317 318
261 261 258 254 253 259 262 263 265 266 269 272 273 275 275 274 272 271 274 278 283 288 292 297 302 306 308 309 310 313 313 315 315 317 316 315 314 314 314 313 313 315 316
262 263 266 269 269 269 269 270 271 273 275 277 277 278 277 274 274 275 277 280 284 288 293 297 302 305 306 308 311 311 313 313 314 315 313 312 312 314 315 312 315 315 314
268 271 273 273 275 275 274 274 275 275 276 276 275 275 275 275 276 277 280 284 288 292 297 299 302 304 306 309 308 308 310 312 314 315 316 313 313 315 314 313 313 311 312
Wind_Speed_850mb
48 56 65 67 74 79 85 83 83 88 90 94 88 92 92 88 79 70 58 55 49 46 44 49 43 30 27 24 21 17 13 11 12 13 15 18 25 33 38 43 48 49 49
41 45 62 63 68 56 72 74 77 76 79 80 79 74 69 66 59 52 55 55 45 57 58 42 38 32 26 21 15 11 9 8 7 9 12 20 26 32 39 43 45 48 53
42 42 66 69 67 57 62 60 57 57 56 62 58 62 58 56 54 55 56 58 62 51 46 39 34 29 23 16 11 7 6 6 8 9 13 20 29 34 40 44 52 56 55
40 64 71 64 61 57 50 48 45 52 62 55 61 65 56 58 63 65 68 64 57 51 44 36 31 25 17 10 5 5 8 9 11 13 18 24 31 37 46 55 56 58 63
43 57 65 63 56 51 48 53 57 59 65 70 68 66 69 69 72 70 63 58 52 47 41 33 26 19 11 2 4 6 9 11 14 16 19 27 36 43 50 55 60 67 71
45 52 54 64 59 59 59 67 74 84 80 75 78 77 77 71 62 54 52 51 46 40 35 28 20 10 6 3 3 9 13 14 16 23 30 34 38 43 49 54 59 67 71
56 60 61 69 74 73 81 86 87 84 80 82 83 78 72 60 57 52 46 45 41 35 27 21 13 8 2 2 8 13 15 20 25 29 31 34 38 42 50 55 59 63 68
59 70 76 78 84 91 90 89 90 89 88 83 77 70 63 56 52 48 42 38 34 30 22 16 11 6 4 3 7 8 14 20 27 27 28 33 38 43 47 53 60 65 69
69 72 75 81 88 91 94 93 91 86 79 75 67 61 59 54 45 39 33 31 27 22 17 12 7 2 4 7 10 16 20 23 25 28 31 32 35 37 43 53 55 61 75
69 74 78 83 90 95 91 88 84 78 77 67 63 54 48 47 38 33 27 22 19 17 12 7 3 2 9 14 16 20 25 25 28 28 31 33 38 40 42 48 54 59 64
70 75 81 83 82 80 77 76 75 71 67 61 55 47 40 35 33 26 23 18 13 10 8 5 2 6 10 18 21 26 31 30 34 39 41 43 44 45 47 49 52 56 59
76 77 74 70 71 71 67 66 63 59 56 52 47 44 36 30 25 20 15 10 8 7 6 2 3 8 14 19 22 28 32 36 39 42 45 47 51 53 54 55 54 55 55
70 73 71 68 63 58 55 54 50 45 42 42 36 34 31 24 18 13 9 10 9 6 4 3 6 12 16 21 26 31 35 39 43 46 50 53 55 58 58 61 58 59 57
63 61 58 56 54 49 44 41 39 35 33 34 32 26 21 16 13 10 11 11 8 5 4 5 9 14 20 25 28 33 38 43 46 49 52 57 61 64 64 65 67 65 67
48 48 46 44 42 41 37 32 28 28 21 19 19 15 12 13 10 9 9 7 5 5 7 11 15 19 24 28 31 34 40 45 49 52 57 63 67 69 68 66 64 64 63
34 34 31 26 24 25 25 28 29 24 19 16 14 11 8 7 9 10 10 9 8 9 11 15 19 24 28 33 37 38 40 46 50 56 60 64 69 71 71 68 64 64 66
20 24 19 14 15 17 16 16 18 24 21 15 13 11 10 10 12 14 13 11 13 16 16 19 24 29 32 36 40 45 49 49 55 58 62 65 69 70 71 69 66 65 67
16 13 11 9 9 9 8 8 8 9 11 11 15 14 17 17 17 17 17 19 18 18 22 26 30 34 37 42 45 50 53 57 60 62 63 66 68 70 71 68 65 65 67
12 6 2 1 5 9 12 14 12 10 10 13 15 16 20 21 22 22 23 23 24 25 29 30 34 39 42 47 51 54 58 61 64 66 66 67 67 69 71 67 66 64 64
14 10 10 11 11 12 13 15 17 19 20 20 21 21 23 24 25 25 27 29 31 32 33 36 38 42 47 52 55 60 63 66 68 70 70 68 68 69 70 68 65 66 63
19 18 22 23 19 18 20 21 23 26 27 27 26 29 29 30 31 32 33 34 36 38 38 42 44 47 50 55 59 64 67 70 71 73 73 71 71 73 69 67 66 63 60
22 25 27 29 27 25 24 27 29 30 32 33 33 34 38 36 34 37 38 39 41 43 44 48 49 52 54 59 62 67 69 72 73 74 75 76 75 74 71 69 65 60 58
25 25 25 27 29 29 30 31 33 34 35 36 37 39 40 39 39 41 43 44 45 45 48 52 55 56 57 59 62 66 71 73 74 74 79 80 80 77 73 69 63 60 63
25 25 25 26 29 30 31 33 35 36 37 38 39 41 41 41 43 45 46 46 49 50 53 55 58 60 61 62 63 66 69 69 71 76 75 78 77 74 69 63 58 62 66
25 25 25 26 29 32 35 36 37 37 39 39 40 42 41 44 45 46 48 50 52 55 55 57 59 61 62 62 64 68 69 71 73 71 75 75 73 67 61 60 64 67 63
25 26 27 30 32 34 35 36 37 38 40 40 42 43 44 46 46 48 49 52 55 57 59 60 60 60 61 62 66 69 73 73 70 70 70 69 65 61 61 67 70 70 70
Wind_Direction_850mb
220 211 213 222 227 229 228 228 227 222 215 211 203 194 195 197 190 184 176 169 168 180 181 175 161 156 156 155 154 162 186 215 236 237 254 277 294 301 307 313 314 319 324
219 213 212 221 217 228 218 221 220 218 210 206 194 190 178 172 169 164 165 168 176 167 161 151 149 149 148 149 159 179 215 236 244 258 283 293 297 307 311 315 317 325 330
203 203 207 207 215 219 218 215 215 209 200 185 179 170 158 151 160 161 164 157 155 146 144 148 146 145 151 161 184 217 251 292 315 308 305 311 314 314 317 322 328 328 333
198 193 192 196 201 203 202 197 192 190 174 163 157 152 154 160 162 156 152 143 141 145 143 144 147 154 161 179 202 292 313 323 333 334 324 318 320 325 330 328 326 332 334
188 180 177 178 181 179 171 167 161 163 163 156 157 156 154 156 154 148 140 144 145 144 145 151 157 158 170 185 324 309 324 339 332 323 327 333 337 332 327 327 330 333 338
166 164 160 159 158 154 152 153 153 153 151 156 155 151 148 142 130 140 144 141 145 144 148 153 155 164 142 252 303 329 328 330 335 345 346 340 330 325 324 330 332 333 334
140 141 146 150 148 148 152 150 151 149 149 149 145 140 130 134 141 142 144 142 143 140 145 153 145 146 153 38 351 331 330 344 348 345 336 327 328 328 329 329 329 328 327
133 137 142 145 145 146 147 146 145 141 143 136 127 124 131 143 143 143 142 142 140 144 148 145 153 148 112 344 307 327 342 346 341 327 324 329 330 330 323 323 324 323 324
127 132 137 140 141 142 140 139 136 138 128 122 124 134 148 142 141 136 143 143 142 140 150 149 121 120 292 325 351 349 342 336 328 327 326 324 321 323 321 321 322 324 329
124 128 133 135 134 132 132 134 130 128 122 130 140 143 141 134 135 139 141 141 149 146 138 131 147 305 328 351 349 334 327 329 321 323 326 328 326 325 322 323 324 325 329
121 123 125 128 128 127 127 124 121 121 135 139 138 135 134 135 139 147 152 152 144 141 140 150 242 345 340 334 334 327 321 325 324 327 330 331 329 328 327 326 324 324 326
115 118 120 120 120 119 118 121 134 137 137 137 138 136 139 146 152 151 147 147 148 162 163 172 316 328 330 321 318 315 319 321 322 323 326 329 330 332 330 327 328 326 323
116 116 114 112 113 119 124 130 133 136 137 135 139 146 150 147 144 147 155 157 155 163 174 248 303 315 313 314 314 320 321 321 323 325 327 328 329 330 331 329 329 323 320
112 118 121 122 125 128 130 131 132 135 141 144 149 147 145 151 164 170 166 161 166 188 243 281 297 307 315 315 315 319 324 324 323 323 324 327 331 332 332 329 328 324 321
118 120 124 125 128 130 129 125 128 129 127 139 148 158 173 180 180 175 173 181 209 248 275 292 305 311 311 314 317 320 322 323 323 323 326 329 329 328 328 327 325 322 322
114 116 115 116 124 135 142 147 152 158 155 163 180 191 200 220 215 207 206 223 240 273 295 297 299 300 306 313 319 321 321 321 322 324 326 327 327 326 325 325 325 322 323
119 119 115 122 138 149 157 166 169 171 179 193 203 222 238 245 230 223 230 254 280 289 294 298 298 304 309 312 317 319 321 323 322 324 325 324 323 323 322 324 323 322 322
141 127 104 91 131 153 165 184 213 223 219 221 237 249 258 259 248 247 252 259 269 287 292 293 301 307 314 317 316 317 321 322 322 322 322 322 323 322 322 323 322 321 321
167 176 161 77 188 197 203 207 212 221 238 257 266 266 261 252 244 246 257 269 280 283 286 296 306 312 315 316 318 319 318 319 320 321 322 322 323 321 320 321 320 320 321
204 230 241 255 251 240 237 235 238 244 252 260 263 269 268 260 259 258 264 271 277 283 293 302 307 312 315 316 317 317 317 319 320 320 321 322 321 319 319 320 320 321 321
224 244 245 251 255 250 249 248 251 254 259 265 269 273 274 268 265 264 268 273 280 288 295 299 304 309 313 315 316 315 316 318 319 320 321 321 320 319 320 319 319 319 319
258 251 247 245 249 256 261 258 259 263 267 270 274 275 276 277 271 268 270 274 279 286 291 296 303 309 312 313 314 313 315 318 319 320 321 321 320 320 320 318 318 317 318
255 256 252 248 248 253 258 262 266 267 268 270 272 275 276 277 272 270 271 274 280 287 293 298 304 307 309 311 312 313 315 317 318 320 320 319 319 319 318 317 317 317 318
261 261 258 254 253 259 262 263 265 266 269 272 273 275 275 274 272 271 274 278 283 288 292 297 302 306 308 309 310 313 313 315 315 317 316 315 314 314 314 313 313 315 316
262 263 266 269 269 269 269 270 271 273 275 277 277 278 277 274 274 275 277 280 284 288 293 297 302 305 306 308 311 311 313 313 314 315 313 312 312 314 315 312 315 315 314
268 271 273 273 275 275 274 274 275 275 276 276 275 275 275 275 276 277 280 284 288 292 297 299 302 304 306 309 308 308 310 312 314 315 316 313 313 315 314 313 313 311 312